Starlink 31740

operational
NORAD ID: 59433 Int'l Des: 2024-065 Owner: SPXS Country: US Constellation: starlink
LEOCIRCULAR

Starlink 31740について

説明を読み込み中...

リアルタイム位置

3D地球を読み込み中...

次回通過

高度履歴

Altitude vs Time

uPlot chart will show altitude changes over time

軌道要素

1 59433U 24065N 25258.64932360 -.00000925 00000-0 -19146-4 0 9999
2 59433 53.1622 16.5904 0000791 123.0988 237.0088 15.30169460 82102
Epoch: Sep 15, 2025 • Age: 17 hours

現在のステータス

高度 477.5 km
速度 7.63 km/s
衛星直下点 -5.50°S, 118.38°W
打ち上げ日 Apr 7, 2024
運用期間 1.4 years
タイプ internet

技術仕様

分類 Payload
質量 730.00 kg
乾燥質量 700.00 kg
総質量 730.00 kg
長さ 0.30 m
直径 4.10 m
スパン 29.00 m
形状 Box + pan
製造者 SPXS
バスタイプ Starlink V2M
フェーズステータス In Orbit
所有者/国 SPXS/US

大規模コンステレーション

Loading constellations...